Location: Aulus
(42.7909°N, 1.3399°E)
Time: 01:29:18
(UTC+00:00)

USA 234 - Pass Details

Date: 19 May 2025
Orbit: 1097 x 1111 km, 123.0° (Epoch: 13 June)

Event Time Altitude Azimuth Distance (km) Brightness Sun altitude
Rises 20:49:59 0° 48° (NE) 3,926 6.2 -14.7°
Reaches altitude 10° 20:52:28 10° 48° (NE) 2,967 5.5 -15.0°
Maximum altitude 20:59:03 84° 321° (NW) 1,116 3.3 -15.8°
Drops below altitude 10° 21:05:36 10° 234° (SW) 2,965 5.6 -16.6°
Sets 21:08:05 0° 234° (SW) 3,922 6.2 -16.9°
